EZY378 EGJJ-EGCC

Flight info

Callsign EZY378
Flight time 0h 49m
Altitude 19000
Route BENIX G27 AKIKI/N0452F380 UN867 AVANT UM184 HEMEL T420 ELVOS
Aircraft A20N/M-SDE2E3FGHIRWXY/LB1

Departure

Time 2026-05-05 20:02
Airport Jersey Airport (EGJJ)

Arrival

Time 2026-05-05 20:52
Airport Manchester Airport (EGCC)
Time Latitude Longitude Altitude Speed Heading
2026-05-05 19:37 49.20546 -2.19859 280 ft 0 kts 175°
2026-05-05 19:47 49.20553 -2.19860 280 ft 1 kts 175°
2026-05-05 19:48 49.20561 -2.19861 280 ft 1 kts 168°
2026-05-05 19:48 49.20568 -2.19864 283 ft 1 kts 158°
2026-05-05 19:48 49.20575 -2.19868 285 ft 1 kts 149°
2026-05-05 19:48 49.20583 -2.19876 283 ft 2 kts 137°
2026-05-05 19:49 49.20593 -2.19893 282 ft 2 kts 114°
2026-05-05 19:49 49.20596 -2.19904 283 ft 0 kts 100°
2026-05-05 19:54 49.20596 -2.19902 280 ft 1 kts 97°
2026-05-05 19:54 49.20600 -2.19875 280 ft 5 kts 76°
2026-05-05 19:54 49.20608 -2.19812 283 ft 7 kts 81°
2026-05-05 19:54 49.20614 -2.19746 280 ft 4 kts 83°
2026-05-05 19:55 49.20621 -2.19704 283 ft 5 kts 63°
2026-05-05 19:55 49.20655 -2.19660 280 ft 8 kts 37°
2026-05-05 19:55 49.20692 -2.19580 281 ft 11 kts 69°
2026-05-05 19:55 49.20708 -2.19462 283 ft 9 kts 81°
2026-05-05 19:56 49.20707 -2.19360 281 ft 11 kts 101°
2026-05-05 19:56 49.20689 -2.19249 284 ft 11 kts 104°
2026-05-05 19:56 49.20682 -2.19129 281 ft 13 kts 84°
2026-05-05 19:56 49.20695 -2.18983 281 ft 15 kts 83°
2026-05-05 19:57 49.20706 -2.18845 284 ft 13 kts 83°
2026-05-05 19:57 49.20713 -2.18751 282 ft 12 kts 84°
2026-05-05 19:57 49.20726 -2.18601 282 ft 11 kts 82°
2026-05-05 19:57 49.20736 -2.18480 282 ft 10 kts 84°
2026-05-05 19:58 49.20744 -2.18372 282 ft 10 kts 81°
2026-05-05 19:58 49.20786 -2.18321 282 ft 0 kts
2026-05-05 19:59 49.20789 -2.18321 282 ft 2 kts
2026-05-05 20:00 49.20850 -2.18357 281 ft 16 kts 333°
2026-05-05 20:00 49.20888 -2.18444 279 ft 0 kts 267°
2026-05-05 20:00 49.20888 -2.18445 279 ft 0 kts 266°
2026-05-05 20:02 49.20884 -2.18504 280 ft 32 kts 264°
2026-05-05 20:02 49.20817 -2.19352 283 ft 125 kts 263°
2026-05-05 20:02 49.20674 -2.20942 668 ft 163 kts 264°
2026-05-05 20:02 49.20487 -2.22810 1337 ft 194 kts 265°
2026-05-05 20:03 49.20287 -2.24877 2384 ft 201 kts 267°
2026-05-05 20:03 49.19968 -2.27051 3103 ft 227 kts 247°
2026-05-05 20:03 49.18892 -2.28977 3779 ft 254 kts 214°
2026-05-05 20:03 49.17182 -2.29973 4481 ft 275 kts 185°
2026-05-05 20:04 49.15256 -2.29712 4909 ft 280 kts 158°
2026-05-05 20:04 49.13612 -2.28219 5017 ft 274 kts 131°
2026-05-05 20:04 49.12626 -2.25815 5026 ft 265 kts 103°
2026-05-05 20:04 49.12512 -2.23082 5024 ft 256 kts 74°
2026-05-05 20:05 49.13180 -2.20646 5035 ft 252 kts 59°
2026-05-05 20:05 49.13941 -2.18222 5028 ft 253 kts 67°
2026-05-05 20:05 49.14375 -2.15611 5028 ft 256 kts 79°
2026-05-05 20:05 49.14477 -2.12870 5069 ft 261 kts 88°
2026-05-05 20:06 49.14357 -2.10082 5496 ft 266 kts 92°
2026-05-05 20:06 49.14134 -2.07267 6582 ft 266 kts 94°
2026-05-05 20:06 49.13882 -2.04444 7629 ft 271 kts 95°
2026-05-05 20:06 49.13621 -2.01557 8644 ft 277 kts 95°
2026-05-05 20:07 49.13359 -1.98606 9657 ft 284 kts 95°
2026-05-05 20:07 49.13168 -1.95616 10470 ft 294 kts 85°
2026-05-05 20:07 49.13670 -1.92520 10901 ft 313 kts 62°
2026-05-05 20:07 49.14996 -1.89772 11367 ft 330 kts 46°
2026-05-05 20:08 49.16605 -1.87246 12301 ft 333 kts 44°
2026-05-05 20:08 49.18250 -1.84722 13243 ft 338 kts 44°
2026-05-05 20:08 49.19898 -1.82133 14106 ft 342 kts 44°
2026-05-05 20:08 49.21668 -1.79679 14955 ft 345 kts 37°
2026-05-05 20:09 49.23653 -1.77584 15784 ft 348 kts 30°
2026-05-05 20:09 49.25759 -1.75688 16551 ft 354 kts 30°
2026-05-05 20:09 49.27891 -1.73741 17327 ft 359 kts 31°
2026-05-05 20:09 49.30047 -1.71759 18111 ft 363 kts 31°
2026-05-05 20:10 49.32225 -1.69754 18649 ft 367 kts 31°
2026-05-05 20:10 49.34417 -1.67736 18867 ft 368 kts 31°
2026-05-05 20:10 49.36617 -1.65710 18932 ft 368 kts 31°
2026-05-05 20:10 49.38784 -1.63712 18939 ft 368 kts 31°
2026-05-05 20:11 49.40987 -1.61681 18943 ft 368 kts 31°
2026-05-05 20:11 49.43191 -1.59647 18940 ft 368 kts 31°
2026-05-05 20:11 49.45384 -1.57621 18940 ft 368 kts 31°
2026-05-05 20:11 49.47586 -1.55584 18940 ft 368 kts 31°
2026-05-05 20:12 49.49781 -1.53551 18938 ft 368 kts 31°
2026-05-05 20:12 49.51951 -1.51540 18933 ft 368 kts 31°
2026-05-05 20:12 49.54091 -1.49360 18938 ft 368 kts 37°
2026-05-05 20:12 49.56032 -1.46768 18940 ft 375 kts 44°
2026-05-05 20:13 49.57920 -1.43792 18938 ft 398 kts 40°
2026-05-05 20:13 49.60256 -1.41395 18939 ft 406 kts 26°
2026-05-05 20:13 49.62927 -1.40021 18939 ft 406 kts 11°
2026-05-05 20:13 49.65743 -1.39734 18940 ft 408 kts 359°
2026-05-05 20:14 49.68578 -1.39979 18939 ft 408 kts 357°
2026-05-05 20:14 49.71377 -1.40175 18938 ft 407 kts 359°
2026-05-05 20:14 49.74219 -1.40194 18933 ft 409 kts
2026-05-05 20:14 49.77132 -1.40061 18939 ft 426 kts
2026-05-05 20:15 49.80110 -1.39839 18938 ft 427 kts
2026-05-05 20:15 49.83080 -1.39580 18940 ft 427 kts
2026-05-05 20:15 49.86058 -1.39309 18941 ft 427 kts
2026-05-05 20:15 49.89026 -1.39038 18941 ft 427 kts
2026-05-05 20:16 49.91997 -1.38769 18942 ft 427 kts
2026-05-05 20:16 49.94968 -1.38502 18942 ft 427 kts
2026-05-05 20:16 49.97943 -1.38235 18941 ft 430 kts
2026-05-05 20:16 50.00924 -1.37828 18942 ft 430 kts
2026-05-05 20:17 50.03873 -1.37079 18940 ft 429 kts
2026-05-05 20:17 50.06781 -1.36354 18942 ft 427 kts
2026-05-05 20:17 50.09716 -1.35631 18940 ft 427 kts
2026-05-05 20:17 50.12654 -1.34905 18941 ft 427 kts
2026-05-05 20:18 50.15599 -1.34175 18943 ft 427 kts
2026-05-05 20:18 50.18535 -1.33445 18942 ft 427 kts
2026-05-05 20:18 50.21483 -1.32709 18940 ft 430 kts
2026-05-05 20:18 50.24436 -1.31970 18942 ft 429 kts
2026-05-05 20:19 50.27387 -1.31232 18945 ft 429 kts
2026-05-05 20:19 50.30337 -1.30492 18944 ft 429 kts
2026-05-05 20:19 50.33292 -1.29751 18942 ft 429 kts
2026-05-05 20:19 50.44542 -1.26919 18942 ft 432 kts
2026-05-05 20:20 50.55618 -1.20115 18946 ft 431 kts 32°
2026-05-05 20:20 50.60652 -1.15140 18943 ft 431 kts 32°
2026-05-05 20:20 50.65743 -1.10101 18945 ft 434 kts 32°
2026-05-05 20:20 50.70849 -1.05013 18948 ft 434 kts 32°
2026-05-05 20:21 50.74491 -1.01371 18946 ft 434 kts 32°
2026-05-05 20:21 50.77049 -0.98809 18948 ft 438 kts 32°
2026-05-05 20:21 50.79636 -0.96221 18946 ft 440 kts 31°
2026-05-05 20:21 50.82338 -0.93950 18947 ft 440 kts 24°
2026-05-05 20:22 50.87343 -0.91113 18943 ft 437 kts 18°
2026-05-05 20:22 50.98946 -0.85081 18952 ft 438 kts 18°
2026-05-05 20:22 51.10546 -0.79045 18960 ft 438 kts 18°
2026-05-05 20:22 51.19878 -0.74168 18965 ft 439 kts 18°
2026-05-05 20:23 51.22779 -0.72647 18965 ft 438 kts 18°
2026-05-05 20:23 51.25679 -0.71125 18966 ft 439 kts 18°
2026-05-05 20:23 51.28576 -0.69603 18966 ft 438 kts 18°
2026-05-05 20:23 51.31482 -0.68075 18966 ft 439 kts 18°
2026-05-05 20:24 51.34392 -0.66541 19100 ft 444 kts 18°
2026-05-05 20:24 51.37333 -0.64989 19685 ft 446 kts 17°
2026-05-05 20:24 51.40256 -0.63444 20281 ft 449 kts 17°
2026-05-05 20:24 51.43243 -0.61865 20757 ft 454 kts 17°
2026-05-05 20:25 51.46248 -0.60274 20938 ft 455 kts 17°
2026-05-05 20:25 51.49244 -0.58685 20966 ft 455 kts 17°
2026-05-05 20:25 51.52278 -0.57256 20965 ft 454 kts 10°
2026-05-05 20:25 51.55413 -0.56778 20966 ft 453 kts 358°
2026-05-05 20:26 51.58533 -0.57374 20969 ft 452 kts 346°
2026-05-05 20:26 51.61507 -0.58965 20965 ft 451 kts 337°
2026-05-05 20:26 51.64403 -0.60906 20963 ft 451 kts 336°
2026-05-05 20:26 51.67295 -0.62876 20962 ft 451 kts 336°
2026-05-05 20:27 51.70192 -0.64816 20961 ft 450 kts 336°
2026-05-05 20:27 51.73103 -0.66731 20975 ft 451 kts 337°
2026-05-05 20:27 51.75977 -0.68599 20975 ft 451 kts 337°
2026-05-05 20:27 51.78888 -0.70482 20975 ft 451 kts 337°
2026-05-05 20:28 51.81803 -0.72364 20984 ft 451 kts 336°
2026-05-05 20:28 51.84722 -0.74251 20978 ft 452 kts 336°
2026-05-05 20:28 51.91707 -0.78784 20978 ft 452 kts 336°
2026-05-05 20:28 51.96070 -0.81623 20974 ft 452 kts 336°
2026-05-05 20:29 51.98990 -0.83528 20975 ft 452 kts 336°
2026-05-05 20:29 52.01911 -0.85435 20980 ft 452 kts 336°
2026-05-05 20:29 52.04797 -0.87321 20983 ft 452 kts 336°
2026-05-05 20:29 52.07724 -0.89237 20981 ft 454 kts 336°
2026-05-05 20:30 52.10653 -0.91159 20983 ft 454 kts 336°
2026-05-05 20:30 52.13587 -0.93085 20833 ft 453 kts 336°
2026-05-05 20:30 52.16508 -0.95004 20594 ft 452 kts 336°
2026-05-05 20:30 52.19399 -0.96906 20465 ft 441 kts 336°
2026-05-05 20:31 52.22195 -0.98749 20306 ft 426 kts 336°
2026-05-05 20:31 52.24891 -1.00528 20092 ft 410 kts 336°
2026-05-05 20:31 52.27472 -1.02232 20009 ft 390 kts 336°
2026-05-05 20:31 52.29938 -1.03862 20009 ft 380 kts 336°
2026-05-05 20:32 52.32413 -1.05506 20008 ft 386 kts 336°
2026-05-05 20:32 52.34897 -1.07157 20002 ft 385 kts 335°
2026-05-05 20:32 52.37374 -1.08804 20001 ft 384 kts 335°
2026-05-05 20:32 52.39854 -1.10455 20008 ft 385 kts 335°
2026-05-05 20:33 52.42342 -1.12113 20008 ft 385 kts 335°
2026-05-05 20:33 52.44786 -1.13741 20012 ft 385 kts 336°
2026-05-05 20:33 52.47266 -1.15397 20013 ft 385 kts 335°
2026-05-05 20:33 52.49745 -1.17053 20015 ft 385 kts 335°
2026-05-05 20:34 52.52220 -1.18710 20026 ft 385 kts 335°
2026-05-05 20:34 52.54701 -1.20370 20014 ft 384 kts 335°
2026-05-05 20:34 52.57185 -1.22036 20022 ft 384 kts 335°
2026-05-05 20:34 52.59664 -1.23701 20020 ft 384 kts 335°
2026-05-05 20:35 52.62139 -1.25366 20021 ft 384 kts 335°
2026-05-05 20:35 52.64622 -1.27038 20019 ft 385 kts 335°
2026-05-05 20:35 52.67098 -1.28707 20023 ft 384 kts 335°
2026-05-05 20:35 52.69526 -1.30397 20049 ft 383 kts 332°
2026-05-05 20:36 52.71859 -1.32530 19902 ft 383 kts 325°
2026-05-05 20:36 52.74126 -1.34868 19427 ft 385 kts 326°
2026-05-05 20:36 52.76422 -1.37212 18662 ft 390 kts 326°
2026-05-05 20:36 52.78719 -1.39551 18141 ft 383 kts 326°
2026-05-05 20:37 52.80964 -1.41836 17665 ft 374 kts 326°
2026-05-05 20:37 52.82425 -1.43327 17353 ft 369 kts 326°
2026-05-05 20:37 52.85303 -1.46272 16740 ft 358 kts 326°
2026-05-05 20:37 52.87415 -1.48442 16287 ft 359 kts 327°
2026-05-05 20:38 52.89532 -1.50616 15831 ft 356 kts 326°
2026-05-05 20:38 52.91617 -1.52761 15387 ft 350 kts 326°
2026-05-05 20:38 52.93668 -1.54874 14946 ft 344 kts 327°
2026-05-05 20:38 52.95701 -1.56972 14510 ft 347 kts 327°
2026-05-05 20:39 52.97742 -1.59079 14073 ft 343 kts 327°
2026-05-05 20:39 52.99728 -1.61132 13633 ft 338 kts 327°
2026-05-05 20:39 53.01725 -1.63195 13187 ft 336 kts 327°
2026-05-05 20:39 53.03694 -1.65239 12752 ft 332 kts 326°
2026-05-05 20:40 53.05526 -1.67556 12346 ft 326 kts 317°
2026-05-05 20:40 53.07089 -1.70253 11932 ft 321 kts 310°
2026-05-05 20:40 53.08537 -1.73104 11523 ft 329 kts 310°
2026-05-05 20:40 53.10019 -1.75979 11119 ft 326 kts 311°
2026-05-05 20:41 53.11489 -1.78821 10712 ft 321 kts 311°
2026-05-05 20:41 53.12937 -1.81623 10314 ft 319 kts 311°
2026-05-05 20:41 53.14386 -1.84434 9939 ft 322 kts 311°
2026-05-05 20:41 53.15832 -1.87245 9809 ft 316 kts 311°
2026-05-05 20:42 53.17240 -1.89985 9738 ft 305 kts 311°
2026-05-05 20:42 53.18593 -1.92624 9633 ft 292 kts 311°
2026-05-05 20:42 53.19879 -1.95138 9287 ft 279 kts 311°
2026-05-05 20:42 53.21108 -1.97542 8841 ft 269 kts 311°
2026-05-05 20:43 53.22323 -1.99909 8248 ft 267 kts 311°
2026-05-05 20:43 53.23418 -2.02431 7537 ft 272 kts 296°
2026-05-05 20:43 53.23872 -2.05401 7283 ft 258 kts 273°
2026-05-05 20:43 53.23899 -2.08265 7146 ft 241 kts 272°
2026-05-05 20:44 53.23930 -2.10967 7019 ft 225 kts 272°
2026-05-05 20:44 53.23962 -2.13525 6783 ft 215 kts 272°
2026-05-05 20:44 53.23992 -2.16005 6526 ft 214 kts 271°
2026-05-05 20:44 53.24020 -2.18490 6234 ft 214 kts 271°
2026-05-05 20:45 53.24062 -2.23124 6031 ft 182 kts 272°
2026-05-05 20:45 53.24079 -2.25157 5912 ft 168 kts 272°
2026-05-05 20:45 53.24095 -2.27086 5604 ft 169 kts 272°
2026-05-05 20:46 53.24116 -2.29124 5036 ft 183 kts 272°
2026-05-05 20:46 53.24136 -2.31303 4520 ft 191 kts 271°
2026-05-05 20:46 53.24153 -2.33476 4210 ft 187 kts 272°
2026-05-05 20:46 53.24169 -2.35616 3930 ft 183 kts 272°
2026-05-05 20:47 53.24184 -2.37790 3492 ft 190 kts 272°
2026-05-05 20:47 53.24201 -2.40018 3129 ft 193 kts 272°
2026-05-05 20:47 53.24215 -2.42223 3007 ft 191 kts 273°
2026-05-05 20:47 53.24391 -2.44401 2995 ft 187 kts 299°
2026-05-05 20:48 53.25284 -2.45795 2925 ft 172 kts 351°
2026-05-05 20:48 53.26386 -2.45513 2814 ft 163 kts 35°
2026-05-05 20:48 53.27212 -2.44285 2632 ft 157 kts 50°
2026-05-05 20:48 53.27888 -2.42869 2444 ft 157 kts 53°
2026-05-05 20:49 53.28564 -2.41477 2239 ft 151 kts 52°
2026-05-05 20:49 53.29189 -2.40190 2039 ft 134 kts 52°
2026-05-05 20:49 53.29741 -2.39062 1875 ft 116 kts 53°
2026-05-05 20:49 53.30227 -2.38064 1726 ft 112 kts 53°
2026-05-05 20:50 53.30561 -2.37375 1611 ft 112 kts 52°
2026-05-05 20:50 53.31042 -2.36389 1469 ft 111 kts 51°
2026-05-05 20:50 53.31532 -2.35382 1312 ft 113 kts 52°
2026-05-05 20:50 53.32032 -2.34355 1136 ft 114 kts 53°
2026-05-05 20:51 53.32532 -2.33330 966 ft 114 kts 52°
2026-05-05 20:51 53.33029 -2.32304 821 ft 110 kts 51°
2026-05-05 20:51 53.33533 -2.31282 611 ft 115 kts 51°
2026-05-05 20:51 53.34024 -2.30272 417 ft 108 kts 51°
2026-05-05 20:52 53.34513 -2.29277 292 ft 115 kts 50°
2026-05-05 20:52 53.35005 -2.28265 237 ft 105 kts 51°
2026-05-05 20:52 53.35254 -2.27745 250 ft 40 kts 51°
2026-05-05 20:52 53.35447 -2.27345 261 ft 43 kts 51°
2026-05-05 20:53 53.35604 -2.27092 264 ft 16 kts 353°
2026-05-05 20:53 53.35693 -2.27177 258 ft 3 kts 322°
2026-05-05 20:54 53.35710 -2.27199 255 ft 9 kts 322°
2026-05-05 20:54 53.35757 -2.27265 248 ft 0 kts 317°
2026-05-05 20:54 53.35768 -2.27288 247 ft 7 kts 305°
2026-05-05 20:54 53.35758 -2.27379 247 ft 10 kts 239°
2026-05-05 20:55 53.35703 -2.27488 247 ft 14 kts 226°
2026-05-05 20:55 53.35636 -2.27628 247 ft 16 kts 228°
2026-05-05 20:55 53.35553 -2.27764 247 ft 17 kts 224°
2026-05-05 20:55 53.35494 -2.27873 246 ft 7 kts 261°
2026-05-05 20:56 53.35521 -2.27907 246 ft 6 kts 348°
2026-05-05 20:56 53.35569 -2.27908 247 ft 9 kts
2026-05-05 20:56 53.35639 -2.27894 246 ft 10 kts
2026-05-05 20:56 53.35691 -2.27883 247 ft 7 kts
2026-05-05 20:57 53.35743 -2.27872 247 ft 9 kts
2026-05-05 20:57 53.35794 -2.27865 247 ft 7 kts
2026-05-05 20:57 53.35802 -2.27864 247 ft 1 kts